Location: Newark
(51.7378°N, 19.8125°E)
Time: 06:29:02
(UTC+00:00)

Envisat - Pass Details

Date: 13 December 2019
Orbit: 764 x 766 km, 98.1° (Epoch: 27 January)

Event Time Altitude Azimuth Distance (km) Brightness Sun altitude
Rises 17:25:53 0° 196° (SSW) 3,222 6.5 -25.7°
Reaches altitude 10° 17:28:28 10° 207° (SSW) 2,301 5.8 -26.1°
Maximum altitude 17:32:50 29° 267° (W) 1,391 4.9 -26.8°
Drops below altitude 10° 17:37:15 10° 327° (NNW) 2,317 5.8 -27.5°
Sets 17:39:53 0° 338° (NNW) 3,248 6.5 -27.9°
